Miscellaneous Local Product
Issued by NWS Hastings, NE

Home | Current Version | Previous Version | Text Only | Print | Product List | Glossary Off
Versions: 1 2 3 4 5 6 7 8 9 10 11 12 13 14 15 16 17 18 19 20 21 22 23 24 25 26 27 28 29 30 31 32 33 34 35 36 37 38 39 40 41 42 43 44 45 46 47 48 49 50

283
AXUS43 KGID 231202
MISGRI

GID CWA HOURLY WEATHER ROUNDUP
NATIONAL WEATHER SERVICE HASTINGS NE
700 AM CDT SUN APR 23 2017

NOTE: "FAIR" INDICATES FEW OR NO CLOUDS BELOW 12,000 FEET WITH NO
SIGNIFICANT WEATHER AND/OR OBSTRUCTIONS TO VISIBILITY.

...SOUTH CENTRAL NEBRASKA...

CITY           SKY/WX    TMP DP  RH WIND       PRES   REMARKS
GRAND ISLAND   PTCLDY    38  30  73 S7        30.16F WCI  33
HASTINGS       CLEAR     42  27  55 S5        30.17F
KEARNEY        CLEAR     36  27  69 S7        30.16F WCI  30
ORD            CLEAR     35  28  75 SW5       30.12F WCI  31
YORK           CLEAR     37  28  70 SW5       30.17S WCI  34
AURORA         CLEAR     39  28  63 SW7       30.16F WCI  34
LEXINGTON      CLOUDY    38  28  68 S6        30.13F WCI  33
HOLDREGE       CLOUDY    35  26  71 S7        30.15F WCI  29
HEBRON         CLEAR     31  29  94 CALM      30.19R

...NEBRASKA PANHANDLE...

CITY           SKY/WX    TMP DP  RH WIND       PRES   REMARKS
CHADRON        CLOUDY    47  31  53 S15       29.90F
ALLIANCE       CLOUDY    40  32  73 S15       29.98F WCI  32
SCOTTSBLUFF    CLOUDY    41  32  70 SE9       29.98F
SIDNEY         CLOUDY    36  32  85 S12       30.04F WCI  28

...WESTERN AND NORTH CENTRAL NEBRASKA...

CITY           SKY/WX    TMP DP  RH WIND       PRES   REMARKS
VALENTINE      CLEAR     43  29  57 S12       30.03F
AINSWORTH      CLEAR     38  32  78 SW9       30.06S WCI  32
ONEILL         CLEAR     40  31  71 S8        30.10S WCI  34
BROKEN BOW     CLOUDY    30  24  78 CALM      30.12S
IMPERIAL       CLOUDY    36  30  79 S7        30.11F WCI  30
NORTH PLATTE   CLOUDY    31  27  85 CALM      30.11F
MCCOOK         CLOUDY    33  28  81 SW6       30.14F WCI  28

...EASTERN NEBRASKA...

CITY           SKY/WX    TMP DP  RH WIND       PRES   REMARKS
NORFOLK        CLEAR     42  31  64 S13       30.13F
SO SIOUX CITY  CLEAR     36  34  92 SE6       30.14F WCI  31
TEKAMAH        CLEAR     39  36  89 S5        30.16S
COLUMBUS       CLEAR     34  28  80 CALM      30.17S
ALBION         CLEAR     41  29  62 CALM      30.14F
OMAHA EPPLEY   CLEAR     41  35  79 SE3       30.17R
OFFUTT AFB     CLEAR     31  29  93 CALM      30.17R
MILLARD        CLEAR     39  38  96 CALM      30.18R FOG
LINCOLN        CLEAR     35  32  88 CALM      30.19S
NEBRASKA CITY  CLEAR     43  28  56 W10       30.18R
BEATRICE       CLEAR     35  32  90 CALM      30.18S
FALLS CITY     CLEAR     36  34  92 NW3       30.18R

...NORTHERN KANSAS...

CITY           SKY/WX    TMP DP  RH WIND       PRES   REMARKS
GOODLAND       CLOUDY    38  30  73 SW14      30.12F WCI  30
HILL CITY      CLEAR     32  29  88 W6        30.18S WCI  26
NORTON         SUNNY     34  25  69 S5        30.15F WCI  30
PHILLIPSBURG   CLEAR     30  30 100 CALM      30.18F
SMITH CENTER   PTCLDY    27  27 100 NW5       30.19S WCI  21
HAYS           CLEAR     30  27  88 SW3       30.19S
RUSSELL        CLEAR     34  30  85 SW7       30.17S WCI  28
CONCORDIA      CLEAR     38  32  79 CALM      30.18S
SALINA         CLEAR     38  33  82 CALM      30.19S
TOPEKA         CLEAR     37  37 100 CALM      30.18R



USA.gov is the U.S. government's official web portal to all federal, state and local government web resources and services.